Weather History for Hot Springs, VA

Change the Weather History Date:

Wednesday, July 25, 2012

  Actual Average Record
Temperature  
Mean Temperature 69 °F -  
Max Temperature 78 °F 74 °F 84 °F (2005)
Min Temperature 60 °F 59 °F 53 °F (2000)
Cooling Degree Days 4    
Growing Degree Days 19 (Base 50)    
Moisture  
Dew Point 63 °F    
Average Humidity 84    
Maximum Humidity 100    
Minimum Humidity 57    
Precipitation  
Precipitation 0.00 in - - ()
Sea Level Pressure  
Sea Level Pressure 30.12 in    
Wind  
Wind Speed 8 mph (West)    
Max Wind Speed 18 mph    
Max Gust Speed 20 mph    
Visibility 8 miles    
Events Fog    
Averages and records for this station are not official NWS values.
T = Trace of Precipitation, MM = Missing Value Source: NWS Daily Summary

Daily Weather History Graph

Daily Weather History Graph

Search for Another Location

Airport:

Trip Planner

Search our weather history database for the weather conditions in past years. The results will help you decide how hot, cold, wet, or windy it might be!

Date:

Astronomy

Jul. 25, 2012 Rise Set
Actual Time 6:17 AM EDT 8:34 PM EDT
Civil Twilight 5:47 AM EDT 9:03 PM EDT
Nautical Twilight 5:10 AM EDT 9:40 PM EDT
Astronomical Twilight 4:30 AM EDT 10:20 PM EDT
Moon 1:11 PM EDT (7/25) No Moon Set
Length of Visible Light 15h 16m
Length of Day
14h 17m
Waxing Crescent, 42% of the Moon is Illuminated
Jul 25
Waxing Crescent
Jul 26
First Quarter
Aug 1
Full
Aug 9
Last Quarter
Aug 17
New

Hourly Weather History & Observations

Time (EDT) Temp. Dew Point Humidity Pressure Visibility Wind Dir Wind Speed Gust Speed Precip Events Conditions
12:17 AM 62.6 °F 62.6 °F 100% 30.06 in 10.0 mi WNW 18.4 mph - N/A   Scattered Clouds
12:37 AM 62.6 °F 62.6 °F 100% 30.08 in 10.0 mi West 12.7 mph - N/A   Scattered Clouds
12:57 AM 62.6 °F 62.6 °F 100% 30.09 in 10.0 mi West 15.0 mph - N/A   Scattered Clouds
1:17 AM 62.6 °F 62.6 °F 100% 30.09 in 10.0 mi WNW 11.5 mph - N/A   Mostly Cloudy
1:37 AM 62.6 °F 62.6 °F 100% 30.08 in 10.0 mi West 11.5 mph 19.6 mph N/A   Overcast
1:57 AM 62.6 °F 62.6 °F 100% 30.07 in 10.0 mi WNW 6.9 mph - N/A   Overcast
2:17 AM 62.6 °F 62.6 °F 100% 30.06 in 7.0 mi WNW 10.4 mph - N/A   Overcast
2:37 AM 62.6 °F 62.6 °F 100% 30.07 in 7.0 mi WNW 5.8 mph - N/A   Overcast
2:57 AM 62.6 °F 62.6 °F 100% 30.09 in 7.0 mi West 8.1 mph - N/A   Overcast
3:17 AM 62.6 °F 62.6 °F 100% 30.09 in 7.0 mi WNW 6.9 mph - N/A   Overcast
3:37 AM 62.6 °F 62.6 °F 100% 30.09 in 5.0 mi West 5.8 mph - N/A   Overcast
3:57 AM 62.6 °F 62.6 °F 100% 30.09 in 5.0 mi West 4.6 mph - N/A   Mostly Cloudy
4:17 AM 62.6 °F 62.6 °F 100% 30.09 in 7.0 mi NW 5.8 mph - N/A   Mostly Cloudy
4:37 AM 62.6 °F 62.6 °F 100% 30.10 in 4.0 mi NW 6.9 mph - N/A   Scattered Clouds
4:57 AM 62.6 °F 62.6 °F 100% 30.10 in 0.2 mi WNW 5.8 mph - N/A Fog Fog
5:57 AM 62.6 °F 62.6 °F 100% 30.11 in 0.2 mi NW 4.6 mph - N/A Fog Fog
6:17 AM 60.8 °F 60.8 °F 100% 30.11 in 4.0 mi NNW 6.9 mph - N/A   Scattered Clouds
6:37 AM 60.8 °F 60.8 °F 100% 30.12 in 2.5 mi NNW 3.5 mph - N/A   Clear
6:57 AM 60.8 °F 60.8 °F 100% 30.13 in 2.5 mi NNW 3.5 mph - N/A   Clear
7:17 AM 62.6 °F 62.6 °F 100% 30.14 in 0.2 mi Calm Calm - N/A Fog Fog
7:37 AM 62.6 °F 62.6 °F 100% 30.14 in 0.2 mi WNW 3.5 mph - N/A Fog Fog
7:57 AM 62.6 °F 62.6 °F 100% 30.15 in 0.2 mi West 3.5 mph - N/A Fog Fog
8:17 AM 60.8 °F 60.8 °F 100% 30.16 in 0.2 mi NW 4.6 mph - N/A Fog Fog
8:37 AM 62.6 °F 62.6 °F 100% 30.16 in 0.8 mi NNW 3.5 mph - N/A   Overcast
8:57 AM 62.6 °F 62.6 °F 100% 30.16 in 7.0 mi Calm Calm - N/A   Mostly Cloudy
9:17 AM 64.4 °F 60.8 °F 88% 30.16 in 10.0 mi Calm Calm - N/A   Clear
9:37 AM 64.4 °F 60.8 °F 88% 30.15 in 10.0 mi Calm Calm - N/A   Clear
9:57 AM 66.2 °F 62.6 °F 88% 30.15 in 0.8 mi Calm Calm - N/A   Mostly Cloudy
10:17 AM 64.4 °F 62.6 °F 94% 30.15 in 7.0 mi Calm Calm - N/A   Mostly Cloudy
10:39 AM 66.2 °F 62.6 °F 88% 30.15 in 10.0 mi Calm Calm - N/A   Mostly Cloudy
10:58 AM 66.2 °F 64.4 °F 94% 30.16 in 10.0 mi Calm Calm - N/A   Mostly Cloudy
11:21 AM 68.0 °F 64.4 °F 88% 30.16 in 10.0 mi Calm Calm - N/A   Mostly Cloudy
11:37 AM 66.2 °F 62.6 °F 88% 30.16 in 10.0 mi Calm Calm - N/A   Scattered Clouds
11:59 AM 69.8 °F 64.4 °F 83% 30.16 in 10.0 mi West 4.6 mph - N/A   Clear
12:18 PM 71.6 °F 62.6 °F 73% 30.16 in 10.0 mi WSW 6.9 mph - N/A   Clear
12:37 PM 71.6 °F 60.8 °F 69% 30.16 in 10.0 mi WSW 3.5 mph - N/A   Scattered Clouds
12:57 PM 71.6 °F 60.8 °F 69% 30.16 in 10.0 mi WSW 4.6 mph - N/A   Clear
1:17 PM 71.6 °F 60.8 °F 69% 30.15 in 10.0 mi WNW 4.6 mph - N/A   Scattered Clouds
1:37 PM 73.4 °F 62.6 °F 69% 30.15 in 10.0 mi West 4.6 mph - N/A   Scattered Clouds
1:57 PM 73.4 °F 62.6 °F 69% 30.15 in 10.0 mi WNW 8.1 mph - N/A   Clear
2:17 PM 73.4 °F 62.6 °F 69% 30.14 in 10.0 mi WSW 8.1 mph - N/A   Scattered Clouds
2:37 PM 75.2 °F 62.6 °F 65% 30.13 in 10.0 mi WNW 6.9 mph - N/A   Scattered Clouds
3:17 PM 75.2 °F 62.6 °F 65% 30.13 in 10.0 mi West 9.2 mph - N/A   Mostly Cloudy
3:37 PM 77.0 °F 64.4 °F 65% 30.12 in 10.0 mi WNW 5.8 mph - N/A   Scattered Clouds
3:57 PM 77.0 °F 62.6 °F 61% 30.12 in 10.0 mi WSW 8.1 mph - N/A   Scattered Clouds
4:17 PM 77.0 °F 62.6 °F 61% 30.11 in 10.0 mi WSW 9.2 mph 16.1 mph N/A   Scattered Clouds
4:37 PM 77.0 °F 62.6 °F 61% 30.11 in 10.0 mi WSW 10.4 mph - N/A   Clear
4:57 PM 78.8 °F 62.6 °F 57% 30.11 in 10.0 mi SSW 6.9 mph - N/A   Scattered Clouds
5:17 PM 78.8 °F 64.4 °F 61% 30.11 in 10.0 mi SW 5.8 mph - N/A   Scattered Clouds
5:37 PM 78.8 °F 64.4 °F 61% 30.11 in 10.0 mi WSW 9.2 mph - N/A   Clear
5:57 PM 78.8 °F 66.2 °F 65% 30.10 in 10.0 mi SSW 8.1 mph - N/A   Clear
6:17 PM 75.2 °F 66.2 °F 73% 30.10 in 10.0 mi South 6.9 mph - N/A   Scattered Clouds
6:37 PM 75.2 °F 66.2 °F 73% 30.10 in 10.0 mi South 6.9 mph - N/A   Scattered Clouds
6:57 PM 75.2 °F 66.2 °F 73% 30.10 in 10.0 mi SSW 6.9 mph - N/A   Scattered Clouds
7:17 PM 75.2 °F 66.2 °F 73% 30.11 in 10.0 mi SW 5.8 mph - N/A   Scattered Clouds
7:37 PM 75.2 °F 66.2 °F 73% 30.11 in 10.0 mi SW 5.8 mph - N/A   Scattered Clouds
7:57 PM 75.2 °F 66.2 °F 73% 30.11 in 10.0 mi WSW 9.2 mph - N/A   Mostly Cloudy
8:17 PM 73.4 °F 64.4 °F 73% 30.10 in 10.0 mi WSW 8.1 mph - N/A   Scattered Clouds
8:39 PM 73.4 °F 64.4 °F 73% 30.10 in 10.0 mi West 10.4 mph - N/A   Clear
8:57 PM 73.4 °F 64.4 °F 73% 30.10 in 10.0 mi West 9.2 mph - N/A   Clear
9:17 PM 73.4 °F 64.4 °F 73% 30.11 in 10.0 mi West 9.2 mph - N/A   Clear
9:37 PM 73.4 °F 64.4 °F 73% 30.11 in 10.0 mi West 9.2 mph - N/A   Clear
9:57 PM 73.4 °F 64.4 °F 73% 30.12 in 10.0 mi West 11.5 mph - N/A   Clear
10:17 PM 71.6 °F 64.4 °F 78% 30.12 in 10.0 mi WSW 11.5 mph - N/A   Clear
10:37 PM 71.6 °F 66.2 °F 83% 30.12 in 10.0 mi WSW 12.7 mph - N/A   Clear
10:57 PM 71.6 °F 68.0 °F 88% 30.12 in 10.0 mi WSW 12.7 mph - N/A   Clear
11:17 PM 71.6 °F 68.0 °F 88% 30.12 in 10.0 mi WSW 13.8 mph - N/A   Clear
11:37 PM 71.6 °F 68.0 °F 88% 30.12 in 10.0 mi WSW 13.8 mph 19.6 mph N/A   Clear
11:57 PM 71.6 °F 68.0 °F 88% 30.11 in 10.0 mi West 15.0 mph - N/A   Clear